Flag Weather past 2 weeks in Sheboygan, Wisconsin, U.S.A.

Now
43 °F

Light rain. Low clouds.


Feels Like: 38 °F
Forecast: 31 / 44 °F
Wind: 8 mph from Northwest

Location: Sheboygan County Memorial Airport

Current Time: Nov 24, 2014 at 10:34:52 AM

Latest Report: Nov 24, 2014 at 9:53 AM


Visibility: 8 mi

Pressure: 29.07 "Hg

Humidity: 93%

Dew point: 41 °F

Location of SheboyganLocation

Historic Weather in Sheboygan — Graph

°F

Sheboygan temperature yesterday

Maximum temperature yesterday: 48 °F (at 10:53 AM)
Minimum temperature yesterday: 43 °F (at 12:59 AM)
Average temperature yesterday: 46 °F

Past Weeks' High & Low Weather Summary

 TemperatureHumidityPressure
High48 °F (Nov 10, 2:53 PM)97% (Nov 11, 4:53 AM)30.45 "Hg (Nov 11, 4:53 AM)
Low5 °F (Nov 21, 5:53 AM)33% (Nov 21, 2:53 PM)29.02 "Hg (Nov 24, 4:53 AM)
Average27 °F74%29.96 "Hg
* Reported Nov 9 8:53 AM — Nov 24 8:53 AM, Sheboygan, Weather by CustomWeather, © 2014

Note: Actual official high and low records may vary slightly from our data, if they occured in-between our weather recording intervals... More about our weather records

Advertising

Sheboygan weather history for previous 24 hours

 ConditionsComfort  
Time TempWeatherWind HumidityBarometerVisibility
8:53 AM
Nov 24
44 °FLow clouds.10 mph93%29.05 "Hg7 mi
8:00 AM44 °FLight rain. More clouds than sun.12 mph93%29.04 "Hg10 mi
7:01 AM43 °FFog.8 mph97%29.03 "Hg6 mi
5:53 AM43 °FMostly cloudy.7 mph93%29.02 "Hg10 mi
4:53 AM43 °FLight rain. Low clouds.7 mph97%29.02 "Hg10 mi
4:02 AM43 °FMostly cloudy.5 mph97%29.02 "Hg10 mi
2:53 AM43 °FLight rain. Overcast.5 mph97%29.04 "Hg10 mi
1:53 AM43 °FLight rain. Fog.3 mph97%29.05 "Hg2 mi
1:03 AM43 °FLight rain. Fog.No wind97%29.06 "Hg1 mi
12:53 AM43 °FLight rain. Fog.N/A97%29.07 "Hg1 mi
11:53 PM
Nov 23
43 °FLight rain. Fog.N/A97%29.11 "Hg1 mi
10:53 PM43 °FLight rain. Fog.5 mph97%29.15 "Hg1 mi
9:53 PM44 °FLight rain. Fog.No wind93%29.21 "Hg1 mi
8:53 PM45 °FLight rain. Fog.No wind97%29.28 "Hg2 mi
7:53 PM45 °FLight rain. Fog.No wind97%29.34 "Hg4 mi
6:53 PM45 °FLight rain. Fog.5 mph97%29.39 "Hg4 mi
5:53 PM46 °FLight rain. Fog.12 mph93%29.43 "Hg4 mi
4:53 PM45 °FLight rain. Fog.12 mph97%29.45 "Hg3 mi
3:53 PM45 °FLight rain. Fog.8 mph93%29.48 "Hg2 mi
2:53 PM45 °FLight rain. Fog.9 mph93%29.49 "Hg2 mi
1:53 PM47 °FLight rain. Fog.10 mph93%29.52 "Hg3 mi
12:53 PM47 °FLight rain. Fog.9 mph93%29.55 "Hg3 mi
11:53 AM48 °FRain. Fog.7 mph89%29.59 "Hg2 mi
11:03 AM48 °FFog.10 mph89%29.62 "Hg6 mi
10:53 AM48 °FFog.13 mph89%29.64 "Hg5 mi
Weather by CustomWeather, © 2014

See weather overviewHow to use our weather pages